When you browse on this site, cookies collect data to enhance your experience and personalize the content and advertising you see.
Visit our Privacy Policy to learn more. By continuing to use the site, you agree to this use of cookies and data.
  • en Belgique
  • Liste des pays
  • À 7 jours
  • Température de l'eau
  • Carte satellitaire
  • Carte météo
  • Widgets météo
  • user-avatar
    Se connecter

    Météo par heure à Karlsruhe

    Ce jour, 25 Avril, Jeudi

    Heure Température Précipitation Vent Pression Humidité
    00:00 +10°C° 0 mm 1 m/s 746 mmHg 72%
    01:00 +10°C° 0 mm 1 m/s 746 mmHg 72%
    02:00 +10°C° 0 mm 1 m/s 746 mmHg 73%
    03:00 +9°C° 0 mm 2 m/s 746 mmHg 74%
    04:00 +9°C° 0 mm 2 m/s 746 mmHg 75%
    05:00 +10°C° 0 mm 2 m/s 746 mmHg 74%
    06:00 +10°C° 0 mm 2 m/s 746 mmHg 72%
    07:00 +12°C° 0 mm 2 m/s 746 mmHg 72%
    08:00 +14°C° 0 mm 2 m/s 746 mmHg 66%
    09:00 +16°C° 0 mm 2 m/s 746 mmHg 60%
    10:00 +18°C° 0 mm 2 m/s 746 mmHg 54%
    11:00 +20°C° 0 mm 3 m/s 745 mmHg 50%
    12:00 +22°C° 0 mm 3 m/s 745 mmHg 45%
    13:00 +25°C° 0 mm 4 m/s 744 mmHg 41%
    14:00 +26°C° 0 mm 4 m/s 744 mmHg 39%
    15:00 +26°C° 0 mm 4 m/s 744 mmHg 37%
    16:00 +27°C° 0 mm 3 m/s 743 mmHg 36%
    17:00 +22°C° 0 mm 4 m/s 743 mmHg 49%
    18:00 +19°C° 0 mm 5 m/s 743 mmHg 63%
    19:00 +14°C° 0 mm 5 m/s 743 mmHg 77%
    20:00 +13°C° 0 mm 4 m/s 744 mmHg 79%
    21:00 +12°C° 0 mm 3 m/s 744 mmHg 81%
    22:00 +12°C° 0 mm 3 m/s 745 mmHg 83%
    23:00 +11°C° 0 mm 3 m/s 746 mmHg 84%

    Demain, 26 Avril, Vendredi

    Heure Température Précipitation Vent Pression Humidité
    00:00 +11°C° 0 mm 3 m/s 746 mmHg 85%
    01:00 +10°C° 0 mm 3 m/s 747 mmHg 86%
    02:00 +10°C° 0 mm 3 m/s 747 mmHg 85%
    03:00 +10°C° 0 mm 3 m/s 747 mmHg 85%
    04:00 +10°C° 0 mm 3 m/s 747 mmHg 84%
    05:00 +10°C° 1.6 mm 3 m/s 747 mmHg 87%
    06:00 +9°C° 1.6 mm 3 m/s 748 mmHg 89%
    07:00 +9°C° 1.6 mm 3 m/s 748 mmHg 92%
    08:00 +8°C° 1.9 mm 4 m/s 749 mmHg 92%
    09:00 +8°C° 1.9 mm 4 m/s 749 mmHg 92%
    10:00 +8°C° 1.9 mm 4 m/s 750 mmHg 92%
    11:00 +8°C° 0.5 mm 4 m/s 750 mmHg 89%
    12:00 +10°C° 0.5 mm 4 m/s 751 mmHg 86%
    13:00 +11°C° 0.5 mm 4 m/s 752 mmHg 83%
    14:00 +12°C° 0.1 mm 4 m/s 752 mmHg 80%
    15:00 +12°C° 0.1 mm 4 m/s 752 mmHg 76%
    16:00 +13°C° 0.1 mm 4 m/s 752 mmHg 72%
    17:00 +12°C° 0 mm 4 m/s 752 mmHg 73%
    18:00 +12°C° 0 mm 4 m/s 752 mmHg 74%
    19:00 +11°C° 0 mm 3 m/s 752 mmHg 75%
    20:00 +11°C° 0 mm 3 m/s 752 mmHg 76%
    21:00 +10°C° 0 mm 3 m/s 753 mmHg 77%
    22:00 +9°C° 0 mm 3 m/s 753 mmHg 79%
    23:00 +9°C° 0 mm 3 m/s 753 mmHg 80%

    Après-demain, 27 Avril, Samedi

    Heure Température Précipitation Vent Pression Humidité
    00:00 +8°C° 0 mm 3 m/s 753 mmHg 82%
    01:00 +8°C° 0 mm 3 m/s 753 mmHg 84%
    02:00 +8°C° 0 mm 3 m/s 753 mmHg 82%
    03:00 +8°C° 0 mm 3 m/s 753 mmHg 81%
    04:00 +7°C° 0 mm 3 m/s 753 mmHg 79%
    05:00 +8°C° 0 mm 3 m/s 753 mmHg 79%
    06:00 +8°C° 0 mm 4 m/s 752 mmHg 78%
    07:00 +8°C° 0 mm 4 m/s 752 mmHg 78%
    08:00 +9°C° 0.5 mm 5 m/s 752 mmHg 80%
    09:00 +9°C° 0.5 mm 5 m/s 752 mmHg 82%
    10:00 +9°C° 0.5 mm 6 m/s 752 mmHg 84%
    11:00 +9°C° 0.2 mm 5 m/s 752 mmHg 82%
    12:00 +9°C° 0.2 mm 5 m/s 752 mmHg 81%
    13:00 +9°C° 0.2 mm 5 m/s 752 mmHg 79%
    14:00 +10°C° 0.4 mm 6 m/s 752 mmHg 78%
    15:00 +10°C° 0.4 mm 6 m/s 752 mmHg 76%
    16:00 +10°C° 0.4 mm 6 m/s 752 mmHg 75%
    17:00 +9°C° 0.1 mm 5 m/s 752 mmHg 75%
    18:00 +9°C° 0.1 mm 5 m/s 752 mmHg 75%
    19:00 +8°C° 0.1 mm 4 m/s 752 mmHg 75%
    20:00 +7°C° 0 mm 4 m/s 753 mmHg 77%
    21:00 +7°C° 0 mm 4 m/s 754 mmHg 79%
    22:00 +6°C° 0 mm 4 m/s 754 mmHg 81%
    23:00 +6°C° 0 mm 4 m/s 754 mmHg 82%

    28 Avril, Dimanche

    Heure Température Précipitation Vent Pression Humidité
    00:00 +5°C° 0 mm 4 m/s 754 mmHg 84%
    01:00 +5°C° 0 mm 4 m/s 754 mmHg 86%
    02:00 +5°C° 0 mm 4 m/s 754 mmHg 85%
    03:00 +5°C° 0 mm 3 m/s 754 mmHg 85%
    04:00 +4°C° 0 mm 3 m/s 754 mmHg 84%
    05:00 +5°C° 0.1 mm 3 m/s 754 mmHg 83%
    06:00 +5°C° 0.1 mm 4 m/s 754 mmHg 82%
    07:00 +5°C° 0.1 mm 4 m/s 753 mmHg 81%
    08:00 +6°C° 0.1 mm 4 m/s 753 mmHg 76%
    09:00 +7°C° 0.1 mm 5 m/s 753 mmHg 71%
    10:00 +8°C° 0.1 mm 5 m/s 753 mmHg 66%
    11:00 +9°C° 0.2 mm 5 m/s 753 mmHg 65%
    12:00 +9°C° 0.2 mm 5 m/s 753 mmHg 64%
    13:00 +10°C° 0.2 mm 5 m/s 753 mmHg 63%
    14:00 +11°C° 0.2 mm 4 m/s 752 mmHg 63%
    15:00 +11°C° 0.2 mm 4 m/s 752 mmHg 62%
    16:00 +11°C° 0.2 mm 3 m/s 752 mmHg 62%
    17:00 +11°C° 0 mm 3 m/s 752 mmHg 66%
    18:00 +10°C° 0 mm 2 m/s 753 mmHg 70%
    19:00 +10°C° 0 mm 1 m/s 753 mmHg 75%
    20:00 +9°C° 0 mm 1 m/s 753 mmHg 78%
    21:00 +8°C° 0 mm 1 m/s 754 mmHg 81%
    22:00 +7°C° 0 mm 1 m/s 754 mmHg 84%
    23:00 +6°C° 0 mm 1 m/s 754 mmHg 85%

    29 Avril, Lundi

    Heure Température Précipitation Vent Pression Humidité
    00:00 +5°C° 0 mm 0 m/s 754 mmHg 86%
    01:00 +5°C° 0 mm 0 m/s 755 mmHg 86%
    02:00 +5°C° 0 mm 0 m/s 755 mmHg 87%
    03:00 +5°C° 0 mm 0 m/s 755 mmHg 87%
    04:00 +4°C° 0 mm 0 m/s 755 mmHg 87%
    05:00 +5°C° 0 mm 0 m/s 755 mmHg 84%
    06:00 +6°C° 0 mm 0 m/s 755 mmHg 81%
    07:00 +7°C° 0 mm 0 m/s 755 mmHg 78%
    08:00 +10°C° 0 mm 1 m/s 755 mmHg 71%
    09:00 +12°C° 0 mm 1 m/s 755 mmHg 64%
    10:00 +14°C° 0 mm 1 m/s 755 mmHg 57%
    11:00 +15°C° 0 mm 2 m/s 755 mmHg 53%
    12:00 +16°C° 0 mm 2 m/s 754 mmHg 49%
    13:00 +17°C° 0 mm 2 m/s 754 mmHg 45%
    14:00 +17°C° 0 mm 2 m/s 754 mmHg 45%
    15:00 +17°C° 0 mm 2 m/s 753 mmHg 44%
    16:00 +17°C° 0 mm 2 m/s 753 mmHg 43%
    17:00 +16°C° 0 mm 2 m/s 753 mmHg 47%
    18:00 +15°C° 0 mm 2 m/s 753 mmHg 52%
    19:00 +14°C° 0 mm 1 m/s 753 mmHg 56%
    20:00 +13°C° 0 mm 1 m/s 753 mmHg 58%
    21:00 +12°C° 0 mm 1 m/s 754 mmHg 61%
    22:00 +11°C° 0 mm 1 m/s 754 mmHg 63%
    23:00 +11°C° 0 mm 1 m/s 754 mmHg 69%

    30 Avril, Mardi

    Heure Température Précipitation Vent Pression Humidité
    00:00 +10°C° 0 mm 1 m/s 754 mmHg 75%
    01:00 +8°C° 0 mm 0 m/s 753 mmHg 82%
    02:00 +10°C° 0 mm 1 m/s 753 mmHg 83%
    03:00 +10°C° 0 mm 1 m/s 753 mmHg 84%
    04:00 +10°C° 0 mm 1 m/s 753 mmHg 85%
    05:00 +10°C° 0.1 mm 1 m/s 753 mmHg 86%
    06:00 +11°C° 0.1 mm 1 m/s 752 mmHg 86%
    07:00 +11°C° 0.1 mm 1 m/s 752 mmHg 87%
    08:00 +11°C° 0.3 mm 1 m/s 752 mmHg 86%
    09:00 +12°C° 0.3 mm 2 m/s 752 mmHg 86%
    10:00 +12°C° 0.3 mm 2 m/s 752 mmHg 86%
    11:00 +13°C° 0.2 mm 2 m/s 752 mmHg 83%
    12:00 +13°C° 0.2 mm 3 m/s 751 mmHg 80%
    13:00 +13°C° 0.2 mm 3 m/s 751 mmHg 78%
    14:00 +14°C° 0.1 mm 3 m/s 751 mmHg 75%
    15:00 +16°C° 0.1 mm 3 m/s 751 mmHg 72%
    16:00 +16°C° 0.1 mm 3 m/s 750 mmHg 69%
    17:00 +16°C° 0.1 mm 2 m/s 750 mmHg 72%
    18:00 +15°C° 0.1 mm 2 m/s 750 mmHg 75%
    19:00 +14°C° 0.1 mm 2 m/s 750 mmHg 78%
    20:00 +13°C° 0 mm 2 m/s 751 mmHg 79%
    21:00 +11°C° 0 mm 3 m/s 751 mmHg 79%
    22:00 +10°C° 0 mm 3 m/s 751 mmHg 79%
    23:00 +10°C° 0 mm 3 m/s 751 mmHg 80%
    Voir plus